Weather in Saint Petersburg

Russia / Saint-Petersburg and Leningrad Oblast     59°56′20″N   30°18′56″E
temp.,
°C
wind,
m/s
gust,
m/s
humid.,
%
clouds,
%
prec.,
mm/h
press.,
hPa
HPBL,
m
18 april, sun
sun1800:00+5ne310794 0.0 1030250
03:00+4ne39901 0.0 1030204
06:00+2ne39882 0.0 1030210
09:00+7ene48690 0.0 1030378
12:00+11ene57511 0.0 1030940
15:00+11ne57481 0.0 10301125
18:00+11ne58522 0.0 1029916
21:00+7ne412686 0.0 1030368
19 april, mon
mon1900:00+6ene388341 0.0 1030209
03:00+5ne379081 0.0 1031165
06:00+3ene379436 0.0 1030179
09:00+7ene467213 0.0 1031476
12:00+10ene46545 0.0 10301051
15:00+10ene56452 0.0 10291148
18:00+9ene47440 0.0 1029767
21:00+6ne310600 0.0 1028245
20 april, tue
tue2000:00+4ene37710 0.0 1028160
03:00+2e25745 0.0 1027101
06:00+1e267654 0.0 1027138
09:00+6e35575 0.0 1026428
12:00+9e4640100 0.0 10241674
15:00+10ese463683 0.0 10221868
18:00+9ese364898 0.0 10201637
21:00+7se376899 0.0 1020342
21 april, wed
wed2100:00+6e2679100 0.0 1018563
03:00+5ene2584100 0.0 1016369
06:00+5ne3683100 0.0 1013302
09:00+6ene4773100 0.0 1010706
12:00+5ene5776100 0.2 1007847
15:00+3ene3698100 2.0 1006314
18:00+2nne2398100 1.1 1005215
21:00+2nnw2396100 1.3 1005371
22 april, thu
thu2200:00+2nw2491100 0.1 1006365
03:00+2wnw3690100 0.1 1007461
06:00+2w3790100 0.0 1009373
09:00+3w3891100 0.1 1011515
12:00+5w4886100 0.0 1013681
15:00+8wnw476654 0.1 1015709
18:00+8w23636 0.0 1017436
21:00+5se11776 0.0 101910